Location: Boitzum
(52.1496°N, 9.6943°E)
Time: 08:59:35
(UTC+00:00)

SJ 16-02 - Pass Details

Date: 13 January 2026
Orbit: 582 x 594 km, 75.0° (Epoch: 19 February)

Event Time Altitude Azimuth Distance (km) Brightness Sun altitude
Rises 06:07:15 0° 166° (SSE) 2,794 5.2 -11.3°
Reaches altitude 10° 06:09:47 10° 152° (SSE) 1,899 4.6 -11.0°
Maximum altitude 06:13:07 23° 100° (E) 1,260 4.0 -10.5°
Drops below altitude 10° 06:16:29 10° 47° (NE) 1,913 4.2 -10.0°
Sets 06:19:02 0° 33° (NNE) 2,819 4.9 -9.6°
